EW0890 Weather Reports


time (UTC)temp
F
wind
direction
speed
knots
gust
knots
rain 1hr
in
rain 24hr
in
rain mn
in
humidity
%
barometer
mb
20260904050022 75 94 0.0 0.0 0.00 0.00 0.00 91 1014.4
20260904045509 75 96 0.0 0.0 0.00 0.00 0.00 91 1014.3
20260904045009 75 83 0.0 0.0 0.00 0.00 0.00 91 1014.3
20260904044559 75 0 0.0 0.0 0.00 0.00 0.00 90 1014.5
20260904044526 75 89 0.0 0.0 0.00 0.00 0.00 90 1014.4
20260904044014 75 89 0.0 0.0 0.00 0.00 0.00 90 1014.3
20260904043515 75 89 0.0 0.0 0.00 0.00 0.00 90 1014.2
20260904043105 75 0 0.0 0.0 0.00 0.00 0.00 89 1014.5
20260904043030 75 89 0.0 0.0 0.00 0.00 0.00 89 1014.2
20260904042516 76 88 0.0 0.0 0.00 0.00 0.00 89 1014.3
20260904042014 76 89 0.0 0.0 0.00 0.00 0.00 89 1014.2
20260904041604 76 0 0.0 0.0 0.00 0.00 0.00 88 1014.3
20260904041533 76 88 0.0 0.0 0.00 0.00 0.00 88 1014.1
20260904041003 76 105 0.0 0.9 0.00 0.00 0.00 88 1014.1
20260904040506 77 105 0.0 0.9 0.00 0.00 0.00 88 1014.2
20260904040018 77 250 0.0 0.9 0.00 0.00 0.00 87 1014.1
20260904035510 77 245 0.0 0.0 0.00 0.00 0.00 87 1014.1
20260904035008 77 244 0.0 0.9 0.00 0.00 0.00 87 1014.2
20260904034601 77 0 0.0 0.9 0.00 0.00 0.00 87 1014.2
20260904034526 77 244 0.0 0.9 0.00 0.00 0.00 87 1014.2
20260904034012 77 241 0.0 0.0 0.00 0.00 0.00 87 1014.1
20260904033511 77 241 0.0 0.9 0.00 0.00 0.00 88 1014.0
20260904033102 77 0 0.0 0.9 0.00 0.00 0.00 88 1014.1
20260904033036 77 241 0.0 0.9 0.00 0.00 0.00 88 1014.1
20260904032513 77 240 0.0 0.0 0.00 0.00 0.00 88 1013.9
20260904032014 77 240 0.0 0.0 0.00 0.00 0.00 88 1013.8
20260904031606 77 0 0.0 0.0 0.00 0.00 0.00 87 1014.1
20260904031533 77 240 0.0 0.0 0.00 0.00 0.00 87 1013.9
20260904031016 77 240 0.0 0.0 0.00 0.00 0.00 87 1014.0
20260904030520 77 240 0.0 0.0 0.00 0.00 0.00 87 1013.9
20260904030055 77 0 0.0 0.0 0.00 0.00 0.00 87 1014.0
20260904030034 77 240 0.0 0.0 0.00 0.00 0.00 87 1013.8
20260904025507 78 153 0.0 0.0 0.00 0.00 0.00 87 1013.8
20260904025007 78 149 0.0 0.0 0.00 0.00 0.00 87 1013.9
20260904024602 78 0 0.0 0.0 0.00 0.00 0.00 87 1014.0
20260904024523 78 149 0.0 0.0 0.00 0.00 0.00 87 1013.8
20260904024008 78 129 0.0 0.0 0.00 0.00 0.00 87 1013.7
20260904023513 78 129 0.0 0.9 0.00 0.00 0.00 87 1013.8
20260904023107 79 0 0.0 0.9 0.00 0.00 0.00 87 1013.9
20260904023025 79 129 0.0 0.9 0.00 0.00 0.00 87 1013.7
20260904022510 79 173 0.0 0.9 0.00 0.00 0.00 87 1013.7
20260904022014 79 167 0.0 0.9 0.00 0.00 0.00 87 1013.6
20260904021604 79 0 0.0 0.9 0.00 0.00 0.00 87 1013.8
20260904021532 79 143 0.0 0.9 0.00 0.00 0.00 87 1013.6
20260904021003 79 136 0.0 0.9 0.00 0.00 0.00 86 1013.7
20260904020504 80 135 0.0 0.0 0.00 0.00 0.00 86 1013.6
20260904020106 80 0 0.0 0.0 0.00 0.00 0.00 86 1013.8
20260904020009 80 158 0.0 0.0 0.00 0.00 0.00 86 1013.5
20260904015503 80 91 0.0 0.9 0.00 0.00 0.00 86 1013.5
20260904015006 80 133 0.0 0.9 0.00 0.00 0.00 86 1013.6
20260904014622 80 0 0.0 0.0 0.00 0.00 0.00 86 1013.6
20260904014512 80 114 0.0 0.0 0.00 0.00 0.00 86 1013.5
20260904014006 80 108 0.0 0.0 0.00 0.00 0.00 86 1013.3
20260904013509 80 101 0.0 0.9 0.00 0.00 0.00 86 1013.2
20260904013122 80 0 0.0 0.9 0.00 0.00 0.00 87 1013.2
20260904013021 80 101 0.0 0.9 0.00 0.00 0.00 87 1013.2
20260904012511 81 134 0.0 0.0 0.00 0.00 0.00 86 1013.3
20260904012010 81 134 0.0 0.0 0.00 0.00 0.00 86 1013.1
20260904011559 81 0 0.0 0.0 0.00 0.00 0.00 85 1013.2
20260904011524 81 134 0.0 0.0 0.00 0.00 0.00 85 1013.0
20260904011015 82 134 0.0 0.0 0.00 0.00 0.00 84 1013.0
20260904010514 82 134 0.0 0.0 0.00 0.00 0.00 83 1013.0
20260904010116 83 0 0.0 0.0 0.00 0.00 0.00 83 1013.0
20260904010032 83 134 0.0 0.0 0.00 0.00 0.00 82 1013.0
20260904005504 83 124 0.0 0.0 0.00 0.00 0.00 82 1013.0
20260904005005 84 124 0.0 0.0 0.00 0.00 0.00 81 1012.9
20260904004616 84 0 0.0 0.0 0.00 0.00 0.00 80 1012.9
20260904004508 84 124 0.0 0.0 0.00 0.00 0.00 80 1013.0
20260904004006 85 124 0.0 0.0 0.00 0.00 0.00 78 1012.9
20260904003506 86 124 0.0 0.0 0.00 0.00 0.00 77 1012.9
20260904003125 87 0 0.0 0.0 0.00 0.00 0.00 76 1013.0
20260904003015 87 99 0.0 0.0 0.00 0.00 0.00 76 1012.9
20260904002508 88 265 0.0 0.0 0.00 0.00 0.00 75 1012.8
20260904002010 89 265 0.0 0.0 0.00 0.00 0.00 73 1012.9
20260904001558 90 0 0.0 0.0 0.00 0.00 0.00 71 1013.0
20260904001523 91 265 0.0 0.0 0.00 0.00 0.00 70 1012.9
20260904001011 92 268 0.0 0.0 0.00 0.00 0.00 70 1012.9
20260904000518 93 268 0.0 0.0 0.00 0.00 0.00 68 1012.9
20260904000051 95 0 0.0 0.0 0.00 0.00 0.00 66 1013.1
20260904000029 95 268 0.0 0.0 0.00 0.00 0.00 66 1013.0
20260903235517 96 268 0.0 0.0 0.00 0.00 0.00 64 1013.1
20260903235012 96 268 0.0 0.0 0.00 0.00 0.00 63 1013.0
20260903234601 97 0 0.0 0.0 0.00 0.00 0.00 62 1013.2
20260903234532 97 268 0.0 0.0 0.00 0.00 0.00 62 1013.0
20260903234004 97 268 0.0 0.0 0.00 0.00 0.00 61 1013.1
20260903233509 97 268 0.0 0.0 0.00 0.00 0.00 61 1013.2
20260903233103 97 0 0.0 0.0 0.00 0.00 0.00 61 1013.3
20260903233012 97 268 0.0 0.0 0.00 0.00 0.00 61 1013.3
20260903232509 97 268 0.0 0.0 0.00 0.00 0.00 60 1013.4
20260903232006 98 268 0.0 0.0 0.00 0.00 0.00 59 1013.4
20260903231601 97 0 0.0 0.0 0.00 0.00 0.00 60 1013.4
20260903231518 97 268 0.0 0.0 0.00 0.00 0.00 60 1013.2
20260903231010 97 268 0.0 0.0 0.00 0.00 0.00 61 1013.1
20260903230509 96 268 0.0 0.0 0.00 0.00 0.00 61 1013.2
20260903230106 95 0 0.0 0.0 0.00 0.00 0.00 62 1013.3
20260903230045 95 268 0.0 0.0 0.00 0.00 0.00 62 1013.3
20260903225515 94 268 0.0 0.0 0.00 0.00 0.00 62 1013.3
20260903225015 94 268 0.0 0.0 0.00 0.00 0.00 61 1013.3
20260903224600 94 0 0.0 0.0 0.00 0.00 0.00 61 1013.4
20260903224530 94 270 0.0 0.0 0.00 0.00 0.00 61 1013.3
20260903224018 94 260 0.0 0.9 0.00 0.00 0.00 60 1013.4
20260903223514 94 280 0.0 0.9 0.00 0.00 0.00 61 1013.2
20260903223114 93 0 0.0 2.6 0.00 0.00 0.00 61 1013.3
20260903223033 93 263 0.0 2.6 0.00 0.00 0.00 61 1013.3
20260903222505 93 274 0.0 2.6 0.00 0.00 0.00 62 1013.3
20260903222007 93 271 0.9 2.6 0.00 0.00 0.00 61 1013.3
20260903221607 93 288 0.9 4.3 0.00 0.00 0.00 60 1013.3
20260903221515 93 262 0.9 4.3 0.00 0.00 0.00 60 1013.3
20260903221012 93 291 1.7 4.3 0.00 0.00 0.00 60 1013.3
20260903220510 94 251 0.9 3.5 0.00 0.00 0.00 61 1013.2
20260903220024 94 245 1.7 2.6 0.00 0.00 0.00 62 1013.2
20260903215512 94 261 0.9 2.6 0.00 0.00 0.00 61 1013.1
20260903215010 94 306 0.0 2.6 0.00 0.00 0.00 61 1013.2
20260903214559 94 276 0.0 2.6 0.00 0.00 0.00 60 1013.4
20260903214537 94 274 0.0 2.6 0.00 0.00 0.00 60 1013.2
20260903214013 94 283 0.9 2.6 0.00 0.00 0.00 60 1013.3
20260903213517 94 280 0.9 2.6 0.00 0.00 0.00 60 1013.2
20260903213106 94 283 0.9 2.6 0.00 0.00 0.00 61 1013.3
20260903213034 94 263 0.9 2.6 0.00 0.00 0.00 61 1013.1
20260903212516 94 212 0.9 1.7 0.00 0.00 0.00 63 1013.1
20260903212017 94 266 0.9 4.3 0.00 0.00 0.00 62 1013.2
20260903211610 94 274 1.7 4.3 0.00 0.00 0.00 63 1013.5
20260903211533 94 257 1.7 4.3 0.00 0.00 0.00 61 1013.3
20260903211008 94 245 0.9 3.5 0.00 0.00 0.00 63 1013.3
20260903210505 94 250 0.9 3.5 0.00 0.00 0.00 62 1013.3
20260903210059 94 249 0.9 3.5 0.00 0.00 0.00 61 1013.5
20260903210016 94 278 0.9 3.5 0.00 0.00 0.00 62 1013.4
20260903205508 94 294 1.7 3.5 0.00 0.00 0.00 61 1013.5
20260903205009 94 186 1.7 4.3 0.00 0.00 0.00 61 1013.5
20260903204600 94 274 1.7 4.3 0.00 0.00 0.00 62 1013.6
20260903204527 93 206 0.9 4.3 0.00 0.00 0.00 61 1013.5
20260903204012 94 283 2.6 4.3 0.00 0.00 0.00 61 1013.5
20260903203516 94 248 2.6 4.3 0.00 0.00 0.00 61 1013.5
20260903203103 94 252 1.7 3.5 0.00 0.00 0.00 63 1013.7
20260903203029 94 308 1.7 3.5 0.00 0.00 0.00 63 1013.6
20260903202513 94 262 1.7 3.5 0.00 0.00 0.00 62 1013.7
20260903202015 94 5 0.9 2.6 0.00 0.00 0.00 64 1013.7
20260903201606 94 280 0.9 4.3 0.00 0.00 0.00 64 1013.7
20260903201535 94 271 1.7 4.3 0.00 0.00 0.00 64 1013.6
20260903201016 94 276 0.9 5.2 0.00 0.00 0.00 62 1013.6
20260903200514 93 272 2.6 5.2 0.00 0.00 0.00 59 1013.6
20260903200109 93 293 1.7 4.3 0.00 0.00 0.00 60 1013.7
20260903200040 93 290 1.7 4.3 0.00 0.00 0.00 60 1013.6
20260903195508 94 256 1.7 5.2 0.00 0.00 0.00 62 1013.7
20260903195006 94 306 1.7 5.2 0.00 0.00 0.00 62 1013.7
20260903194603 94 285 1.7 4.3 0.00 0.00 0.00 62 1013.9
20260903194519 94 283 0.9 4.3 0.00 0.00 0.00 64 1013.7
20260903194009 94 283 1.7 4.3 0.00 0.00 0.00 62 1013.8
20260903193511 93 263 1.7 4.3 0.00 0.00 0.00 61 1013.9
20260903193108 93 282 1.7 4.3 0.00 0.00 0.00 62 1014.2
20260903193028 93 281 1.7 4.3 0.00 0.00 0.00 61 1013.9
20260903192515 94 257 1.7 4.3 0.00 0.00 0.00 64 1013.9
20260903192016 94 283 0.9 4.3 0.00 0.00 0.00 63 1014.1
20260903191607 93 263 2.6 4.3 0.00 0.00 0.00 63 1014.2
20260903191529 93 298 1.7 4.3 0.00 0.00 0.00 63 1014.2
20260903191018 93 290 1.7 4.3 0.00 0.00 0.00 62 1014.2
20260903190518 94 214 1.7 3.5 0.00 0.00 0.00 64 1014.1
20260903190106 94 288 1.7 3.5 0.00 0.00 0.00 65 1014.3
20260903190031 94 284 1.7 3.5 0.00 0.00 0.00 64 1014.2
20260903185515 93 283 0.9 4.3 0.00 0.00 0.00 66 1014.2
20260903185018 93 280 1.7 6.1 0.00 0.00 0.00 65 1014.2
20260903184604 93 285 2.6 6.1 0.00 0.00 0.00 63 1014.3
20260903184532 93 309 2.6 6.1 0.00 0.00 0.00 63 1014.3
20260903184007 93 295 1.7 5.2 0.00 0.00 0.00 63 1014.3
20260903183510 93 280 2.6 5.2 0.00 0.00 0.00 64 1014.4
20260903183107 93 244 1.7 6.1 0.00 0.00 0.00 64 1014.5
20260903183022 93 286 1.7 6.1 0.00 0.00 0.00 64 1014.5
20260903182510 92 264 1.7 6.1 0.00 0.00 0.00 67 1014.4
20260903182011 92 296 2.6 6.1 0.00 0.00 0.00 65 1014.5
20260903181558 92 280 1.7 6.1 0.00 0.00 0.00 65 1014.6
20260903181527 92 241 2.6 6.1 0.00 0.00 0.00 65 1014.5
20260903181016 92 295 2.6 6.1 0.00 0.00 0.00 65 1014.6
20260903180513 92 250 4.3 6.1 0.00 0.00 0.00 62 1014.6
20260903180107 92 292 2.6 6.1 0.00 0.00 0.00 64 1014.9
20260903180049 92 275 2.6 5.2 0.00 0.00 0.00 65 1014.7
20260903175513 92 281 1.7 7.0 0.00 0.00 0.00 67 1014.7
20260903175017 91 307 3.5 7.0 0.00 0.00 0.00 63 1014.8
20260903174608 91 293 3.5 7.0 0.00 0.00 0.00 66 1015.1
20260903174532 91 281 3.5 7.0 0.00 0.00 0.00 65 1014.8
20260903174014 91 242 3.5 7.0 0.00 0.00 0.00 65 1014.9
20260903174007 91 257 3.5 7.0 0.00 0.00 0.00 65 1014.9
20260903173508 91 287 2.6 7.0 0.00 0.00 0.00 66 1014.8
20260903173107 91 271 3.5 7.0 0.00 0.00 0.00 64 1015.0
20260903173015 91 290 3.5 7.0 0.00 0.00 0.00 65 1014.7
20260903172507 91 238 3.5 7.0 0.00 0.00 0.00 66 1014.8
20260903172008 91 282 2.6 7.0 0.00 0.00 0.00 68 1014.8
20260903171604 90 290 3.5 7.0 0.00 0.00 0.00 66 1015.0
20260903171525 90 278 3.5 7.0 0.00 0.00 0.00 66 1014.7
20260903171011 90 307 2.6 7.0 0.00 0.00 0.00 67 1014.8
20260903170506 90 280 3.5 7.0 0.00 0.00 0.00 67 1014.9
20260903170108 90 292 3.5 6.1 0.00 0.00 0.00 67 1015.1
20260903170006 90 284 3.5 6.1 0.00 0.00 0.00 68 1014.9
20260903165504 90 274 3.5 6.1 0.00 0.00 0.00 68 1015.0
20260903165006 90 300 3.5 6.1 0.00 0.00 0.00 68 1014.9
20260903164609 89 294 3.5 6.1 0.00 0.00 0.00 68 1015.2
20260903164507 89 295 3.5 6.1 0.00 0.00 0.00 69 1015.0
20260903164002 89 260 4.3 5.2 0.00 0.00 0.00 69 1015.1
20260903163503 89 271 3.5 7.0 0.00 0.00 0.00 69 1015.1
20260903163101 89 318 3.5 7.0 0.00 0.00 0.00 71 1015.3
20260903163014 89 203 3.5 7.0 0.00 0.00 0.00 68 1015.1
20260903162507 89 268 3.5 6.1 0.00 0.00 0.00 70 1015.1
20260903162007 89 282 3.5 7.0 0.00 0.00 0.00 70 1015.1
20260903161605 89 265 3.5 7.0 0.00 0.00 0.00 68 1015.3
20260903161516 89 288 3.5 7.0 0.00 0.00 0.00 69 1015.1
20260903161009 88 234 2.6 7.0 0.00 0.00 0.00 71 1015.2
20260903160512 88 289 2.6 7.0 0.00 0.00 0.00 70 1015.2
20260903160110 88 283 4.3 7.0 0.00 0.00 0.00 70 1015.3
20260903160030 88 256 4.3 7.0 0.00 0.00 0.00 69 1015.3
20260903155504 88 279 2.6 6.1 0.00 0.00 0.00 70 1015.2
20260903155003 88 296 2.6 5.2 0.00 0.00 0.00 71 1015.2
20260903154601 87 233 3.5 6.1 0.00 0.00 0.00 71 1015.3
20260903154507 87 249 3.5 6.1 0.00 0.00 0.00 70 1015.1
20260903154006 87 252 2.6 6.1 0.00 0.00 0.00 70 1015.2
20260903153507 87 252 2.6 6.1 0.00 0.00 0.00 71 1015.1
20260903153110 87 297 3.5 5.2 0.00 0.00 0.00 71 1015.2
20260903153008 87 266 3.5 5.2 0.00 0.00 0.00 71 1015.2
20260903152506 87 267 2.6 5.2 0.00 0.00 0.00 72 1015.3
20260903152011 87 289 3.5 7.8 0.00 0.00 0.00 72 1015.3
20260903151558 86 274 4.3 7.8 0.00 0.00 0.00 71 1015.2
20260903151514 86 257 4.3 7.8 0.00 0.00 0.00 71 1015.2
20260903151006 86 283 2.6 6.1 0.00 0.00 0.00 72 1015.1
20260903150508 86 278 2.6 5.2 0.00 0.00 0.00 73 1015.1
20260903150022 86 251 2.6 5.2 0.00 0.00 0.00 72 1015.1
20260903145511 86 283 1.7 6.1 0.00 0.00 0.00 74 1015.1
20260903145011 85 289 4.3 6.1 0.00 0.00 0.00 72 1015.0
20260903144602 85 307 4.3 6.1 0.00 0.00 0.00 73 1014.9
20260903144527 85 250 3.5 6.1 0.00 0.00 0.00 72 1015.0
20260903144004 85 293 3.5 6.1 0.00 0.00 0.00 73 1014.8
20260903143504 85 260 2.6 5.2 0.00 0.00 0.00 74 1014.8
20260903143111 85 219 2.6 7.0 0.00 0.00 0.00 74 1014.7
20260903143006 85 282 2.6 7.0 0.00 0.00 0.00 75 1014.8
20260903142506 84 272 2.6 7.0 0.00 0.00 0.00 74 1014.7
20260903142002 84 285 2.6 6.1 0.00 0.00 0.00 74 1014.8
20260903141608 84 283 2.6 6.1 0.00 0.00 0.00 74 1014.7
20260903141515 84 329 2.6 6.1 0.00 0.00 0.00 74 1014.7
20260903141007 84 248 2.6 5.2 0.00 0.00 0.00 75 1014.8
20260903140508 83 247 1.7 7.8 0.00 0.00 0.00 75 1014.9
20260903140022 83 252 1.7 7.8 0.00 0.00 0.00 75 1014.9
20260903135507 83 302 2.6 6.1 0.00 0.00 0.00 76 1014.9
20260903135009 83 295 1.7 5.2 0.00 0.00 0.00 76 1014.8
20260903134610 82 266 1.7 4.3 0.00 0.00 0.00 77 1014.7
20260903134526 82 160 1.7 4.3 0.00 0.00 0.00 77 1014.9
20260903134011 82 227 1.7 4.3 0.00 0.00 0.00 77 1014.9
20260903133518 82 285 1.7 4.3 0.00 0.00 0.00 78 1015.0
20260903133112 81 264 1.7 4.3 0.00 0.00 0.00 79 1014.9
20260903133031 81 257 1.7 4.3 0.00 0.00 0.00 79 1015.0
20260903132503 81 243 1.7 3.5 0.00 0.00 0.00 79 1015.1
20260903132003 81 254 1.7 3.5 0.00 0.00 0.00 79 1015.1
20260903131602 81 276 0.9 3.5 0.00 0.00 0.00 80 1014.9
20260903131510 80 269 0.9 3.5 0.00 0.00 0.00 80 1015.0
20260903131004 80 267 0.9 3.5 0.00 0.00 0.00 81 1014.9
20260903130504 80 287 0.9 4.3 0.00 0.00 0.00 81 1015.1
20260903130130 80 272 1.7 4.3 0.00 0.00 0.00 81 1015.0
20260903130015 79 327 1.7 4.3 0.00 0.00 0.00 81 1015.2
20260903125508 79 303 0.9 4.3 0.00 0.00 0.00 81 1015.1
20260903125008 79 342 1.7 4.3 0.00 0.00 0.00 81 1015.1
20260903124607 79 302 0.9 1.7 0.00 0.00 0.00 82 1015.0
20260903124520 79 266 0.9 1.7 0.00 0.00 0.00 82 1015.1
20260903124009 78 223 0.0 1.7 0.00 0.00 0.00 83 1015.2
20260903123512 78 242 0.0 1.7 0.00 0.00 0.00 83 1015.2
20260903123102 78 266 0.0 1.7 0.00 0.00 0.00 84 1015.2
20260903123034 78 243 0.0 1.7 0.00 0.00 0.00 84 1015.2
20260903122512 77 158 0.9 1.7 0.00 0.00 0.00 85 1015.2
20260903122019 77 155 0.0 1.7 0.00 0.00 0.00 86 1015.1
20260903121602 76 0 0.0 0.9 0.00 0.00 0.00 86 1015.0
20260903121530 76 228 0.0 0.9 0.00 0.00 0.00 86 1015.2
20260903121003 76 215 0.0 1.7 0.00 0.00 0.00 87 1015.1
20260903120504 75 255 0.0 1.7 0.00 0.00 0.00 88 1015.1
20260903120113 75 262 0.0 0.9 0.00 0.00 0.00 88 1015.2
20260903120013 75 274 0.0 0.9 0.00 0.00 0.00 88 1015.0
20260903115504 74 132 0.0 0.9 0.00 0.00 0.00 88 1015.1
20260903115003 74 113 0.0 1.7 0.00 0.00 0.00 88 1015.1
20260903114558 74 86 0.0 1.7 0.00 0.00 0.00 88 1015.1
20260903114516 74 347 0.0 1.7 0.00 0.00 0.00 88 1015.0
20260903114008 74 277 0.0 0.0 0.00 0.00 0.00 88 1015.0
20260903113509 74 247 0.0 0.9 0.00 0.00 0.00 88 1014.9
20260903113056 74 0 0.0 1.7 0.00 0.00 0.00 88 1014.9
20260903113024 74 247 0.0 1.7 0.00 0.00 0.00 88 1014.9
20260903112514 74 231 0.0 1.7 0.00 0.00 0.00 88 1014.9
20260903112018 74 240 0.0 1.7 0.00 0.00 0.00 87 1014.8
20260903111602 74 192 0.0 2.6 0.00 0.00 0.00 87 1014.9
20260903111532 74 262 0.9 2.6 0.00 0.00 0.00 87 1014.8
20260903111014 74 300 0.9 2.6 0.00 0.00 0.00 87 1014.8
20260903110515 74 324 0.0 1.7 0.00 0.00 0.00 88 1014.8
20260903110104 74 283 0.0 2.6 0.00 0.00 0.00 88 1014.9
20260903110032 74 283 0.0 1.7 0.00 0.00 0.00 88 1014.7
20260903105504 74 281 0.9 2.6 0.00 0.00 0.00 88 1014.9
20260903105007 74 281 0.9 2.6 0.00 0.00 0.00 88 1014.8
20260903104603 74 284 0.9 1.7 0.00 0.00 0.00 88 1014.9
20260903104514 74 254 0.9 1.7 0.00 0.00 0.00 88 1014.8
20260903104007 74 290 0.9 1.7 0.00 0.00 0.00 88 1014.8
20260903103509 74 290 0.9 1.7 0.00 0.00 0.00 87 1014.8
20260903103105 75 0 0.0 1.7 0.00 0.00 0.00 87 1014.8
20260903103020 75 310 0.0 1.7 0.00 0.00 0.00 87 1014.7
20260903102511 75 271 0.9 1.7 0.00 0.00 0.00 87 1014.7
20260903102015 75 284 0.0 2.6 0.00 0.00 0.00 87 1014.6
20260903101605 75 289 0.9 3.5 0.00 0.00 0.00 87 1014.7
20260903101524 75 269 0.9 3.5 0.00 0.00 0.00 87 1014.7
20260903101012 75 254 0.9 3.5 0.00 0.00 0.00 87 1014.7
20260903100514 75 266 0.9 1.7 0.00 0.00 0.00 87 1014.6
20260903100059 75 245 0.9 4.3 0.00 0.00 0.00 87 1014.7
20260903100033 75 11 0.9 4.3 0.00 0.00 0.00 87 1014.7
20260903095516 75 206 0.9 4.3 0.00 0.00 0.00 87 1014.7
20260903095015 74 281 0.9 2.6 0.00 0.00 0.00 87 1014.7
20260903094606 74 259 0.9 2.6 0.00 0.00 0.00 88 1014.8
20260903094539 74 278 0.9 2.6 0.00 0.00 0.00 88 1014.7
20260903094006 74 281 0.9 2.6 0.00 0.00 0.00 88 1014.7
20260903093508 74 244 0.9 2.6 0.00 0.00 0.00 88 1014.6
20260903093107 74 291 0.9 1.7 0.00 0.00 0.00 88 1014.7
20260903093038 74 245 0.9 1.7 0.00 0.00 0.00 88 1014.7
20260903092507 74 240 0.0 2.6 0.00 0.00 0.00 88 1014.7
20260903092009 74 302 0.9 2.6 0.00 0.00 0.00 88 1014.7
20260903091607 74 273 0.9 1.7 0.00 0.00 0.00 88 1014.7
20260903091524 74 285 0.9 1.7 0.00 0.00 0.00 88 1014.7
20260903091012 74 279 0.9 1.7 0.00 0.00 0.00 88 1014.7
20260903090512 74 290 0.0 2.6 0.00 0.00 0.00 88 1014.8
20260903090108 74 276 0.9 2.6 0.00 0.00 0.00 88 1014.8
20260903090030 74 255 0.9 2.6 0.00 0.00 0.00 88 1014.6
20260903085514 74 281 0.9 1.7 0.00 0.00 0.00 88 1014.7
20260903085014 74 297 0.9 1.7 0.00 0.00 0.00 88 1014.6
20260903084601 74 293 0.9 1.7 0.00 0.00 0.00 88 1014.7
20260903084533 74 295 0.9 1.7 0.00 0.00 0.00 88 1014.7
20260903084016 74 293 0.9 2.6 0.00 0.00 0.00 88 1014.6
20260903083516 75 281 0.9 2.6 0.00 0.00 0.00 88 1014.7
20260903083105 75 254 0.9 1.7 0.00 0.00 0.00 88 1014.8
20260903083032 75 291 0.9 1.7 0.00 0.00 0.00 88 1014.7
20260903082505 75 290 0.0 1.7 0.00 0.00 0.00 88 1014.7
20260903082007 75 311 0.9 1.7 0.00 0.00 0.00 87 1014.6
20260903081625 75 274 0.9 1.7 0.00 0.00 0.00 87 1014.9
20260903081520 75 271 0.9 1.7 0.00 0.00 0.00 87 1014.7
20260903081008 75 264 0.9 1.7 0.00 0.00 0.00 87 1014.7
20260903080510 75 275 0.9 1.7 0.00 0.00 0.00 87 1014.8
20260903080105 75 270 0.9 2.6 0.00 0.00 0.00 87 1014.9
20260903080027 75 288 0.9 2.6 0.00 0.00 0.00 87 1014.7
20260903075512 75 264 0.9 2.6 0.00 0.00 0.00 87 1014.7
20260903075013 75 245 0.9 2.6 0.00 0.00 0.00 87 1014.7
20260903074610 75 205 0.9 2.6 0.00 0.00 0.00 87 1014.9
20260903074530 75 270 0.9 2.6 0.00 0.00 0.00 87 1014.7
20260903074020 75 284 0.9 2.6 0.00 0.00 0.00 87 1014.7
20260903073519 75 277 0.9 2.6 0.00 0.00 0.00 86 1014.7
20260903073135 75 258 0.9 2.6 0.00 0.00 0.00 86 1014.8
20260903073033 75 259 0.9 2.6 0.00 0.00 0.00 86 1014.6
20260903072518 76 286 0.9 2.6 0.00 0.00 0.00 86 1014.6
20260903072021 76 304 0.9 2.6 0.00 0.00 0.00 86 1014.7
20260903071619 76 262 0.9 2.6 0.00 0.00 0.00 85 1014.9
20260903071534 76 272 0.9 2.6 0.00 0.00 0.00 85 1014.7
20260903071009 76 283 0.9 3.5 0.00 0.00 0.00 85 1014.7
20260903070510 76 278 0.9 3.5 0.00 0.00 0.00 85 1014.8
20260903070100 76 283 0.9 2.6 0.00 0.00 0.00 85 1014.9
20260903070028 76 285 0.9 2.6 0.00 0.00 0.00 85 1014.7
20260903065511 76 274 0.9 2.6 0.00 0.00 0.00 85 1014.7
20260903065012 76 240 0.9 2.6 0.00 0.00 0.00 85 1014.8
20260903064601 77 276 0.9 2.6 0.00 0.00 0.00 85 1014.9
20260903064527 77 311 0.9 2.6 0.00 0.00 0.00 85 1014.7
20260903064012 77 288 0.9 2.6 0.00 0.00 0.00 84 1014.7
20260903063512 77 278 0.9 2.6 0.00 0.00 0.00 84 1014.7
20260903063103 77 288 0.9 2.6 0.00 0.00 0.00 84 1015.0
20260903063032 77 281 0.9 2.6 0.00 0.00 0.00 84 1014.8
20260903062504 77 258 0.9 1.7 0.00 0.00 0.00 84 1014.8
20260903062007 77 278 0.9 1.7 0.00 0.00 0.00 84 1014.7
20260903061604 77 278 0.9 1.7 0.00 0.00 0.00 84 1014.9
20260903061512 77 233 0.9 1.7 0.00 0.00 0.00 84 1014.8
20260903061008 77 286 0.9 1.7 0.00 0.00 0.00 84 1014.8
20260903060508 77 271 0.0 1.7 0.00 0.00 0.00 84 1014.8
20260903060146 77 294 0.9 1.7 0.00 0.00 0.00 84 1014.8
20260903060018 77 297 0.9 1.7 0.00 0.00 0.00 84 1014.7
20260903055509 77 282 0.9 1.7 0.00 0.00 0.00 84 1014.7
20260903055013 77 277 0.9 1.7 0.00 0.00 0.00 84 1014.7
20260903054600 77 257 0.9 1.7 0.00 0.00 0.00 85 1014.8
20260903054532 77 264 0.9 1.7 0.00 0.00 0.00 85 1014.7
20260903054010 77 286 0.0 1.7 0.00 0.00 0.00 85 1014.6
20260903053512 77 290 0.9 1.7 0.00 0.00 0.00 86 1014.7
20260903053102 77 292 0.9 1.7 0.00 0.00 0.00 86 1014.7
20260903053031 77 280 0.9 1.7 0.00 0.00 0.00 87 1014.5
20260903052513 76 234 0.0 1.7 0.00 0.00 0.00 87 1014.5
20260903052017 76 288 0.0 0.0 0.00 0.00 0.00 88 1014.6
20260903051609 77 0 0.0 0.0 0.00 0.00 0.00 88 1014.7
20260903051534 77 271 0.0 0.0 0.00 0.00 0.00 88 1014.6
20260903051003 77 274 0.0 0.0 0.00 0.00 0.00 88 1014.4
20260903050503 77 255 0.0 1.7 0.00 0.00 0.00 87 1014.4
20260903050105 77 0 0.0 1.7 0.00 0.00 0.00 87 1014.7